Year,Month,Day,Hour,Minute,Value (Times are PST for temperature in C)
2008,04,12,00,00,6.90
2008,04,12,00,01,6.90
2008,04,12,00,02,6.90
2008,04,12,00,03,6.90
2008,04,12,00,04,6.90
2008,04,12,00,05,6.90
2008,04,12,00,06,6.90
2008,04,12,00,07,7.00
2008,04,12,00,08,7.00
2008,04,12,00,09,7.00
2008,04,12,00,10,7.00
2008,04,12,00,11,7.00
2008,04,12,00,12,7.00
2008,04,12,00,13,7.10
2008,04,12,00,14,7.10
2008,04,12,00,15,7.10
2008,04,12,00,16,7.10
2008,04,12,00,17,7.10
2008,04,12,00,18,7.00
2008,04,12,00,19,7.10
2008,04,12,00,20,7.10
2008,04,12,00,21,7.10
2008,04,12,00,22,7.10
2008,04,12,00,23,7.10
2008,04,12,00,24,7.10
2008,04,12,00,25,7.10
2008,04,12,00,26,7.10
2008,04,12,00,27,7.10
2008,04,12,00,28,7.10
2008,04,12,00,29,7.00
2008,04,12,00,30,7.00
2008,04,12,00,31,7.00
2008,04,12,00,32,6.90
2008,04,12,00,33,6.90
2008,04,12,00,34,7.00
2008,04,12,00,35,7.00
2008,04,12,00,36,6.90
2008,04,12,00,37,6.90
2008,04,12,00,38,6.90
2008,04,12,00,39,6.90
2008,04,12,00,40,6.90
2008,04,12,00,41,6.90
2008,04,12,00,42,6.80
2008,04,12,00,43,6.80
2008,04,12,00,44,6.80
2008,04,12,00,45,6.80
2008,04,12,00,46,6.80
2008,04,12,00,47,6.80
2008,04,12,00,48,6.80
2008,04,12,00,49,6.80
2008,04,12,00,50,6.80
2008,04,12,00,51,6.80
2008,04,12,00,52,6.80
2008,04,12,00,53,6.80
2008,04,12,00,54,6.80
2008,04,12,00,55,6.80
2008,04,12,00,56,6.80
2008,04,12,00,57,6.80
2008,04,12,00,58,6.80
2008,04,12,00,59,6.80
2008,04,12,01,00,6.80
2008,04,12,01,01,6.80
2008,04,12,01,02,6.80
2008,04,12,01,03,6.90
2008,04,12,01,04,6.90
2008,04,12,01,05,6.90
2008,04,12,01,06,6.90
2008,04,12,01,07,6.90
2008,04,12,01,08,7.00
2008,04,12,01,09,7.00
2008,04,12,01,10,7.00
2008,04,12,01,11,7.00
2008,04,12,01,12,7.00
2008,04,12,01,13,7.00
2008,04,12,01,14,7.00
2008,04,12,01,15,7.00
2008,04,12,01,16,7.00
2008,04,12,01,17,7.00
2008,04,12,01,18,7.00
2008,04,12,01,19,7.00
2008,04,12,01,20,7.00
2008,04,12,01,21,7.00
2008,04,12,01,22,7.00
2008,04,12,01,23,7.00
2008,04,12,01,24,7.00
2008,04,12,01,25,6.90
2008,04,12,01,26,6.90
2008,04,12,01,27,6.90
2008,04,12,01,28,6.90
2008,04,12,01,29,7.00
2008,04,12,01,30,6.90
2008,04,12,01,31,7.00
2008,04,12,01,32,7.00
2008,04,12,01,33,7.00
2008,04,12,01,34,7.00
2008,04,12,01,35,7.00
2008,04,12,01,36,7.00
2008,04,12,01,37,7.00
2008,04,12,01,38,7.00
2008,04,12,01,39,7.00
2008,04,12,01,40,6.90
2008,04,12,01,41,6.90
2008,04,12,01,42,6.90
2008,04,12,01,43,6.90
2008,04,12,01,44,6.90
2008,04,12,01,45,6.90
2008,04,12,01,46,7.00
2008,04,12,01,47,7.00
2008,04,12,01,48,7.00
2008,04,12,01,49,7.00
2008,04,12,01,50,7.10
2008,04,12,01,51,7.10
2008,04,12,01,52,7.10
2008,04,12,01,53,7.10
2008,04,12,01,54,7.10
2008,04,12,01,55,7.10
2008,04,12,01,56,7.10
2008,04,12,01,57,7.10
2008,04,12,01,58,7.10
2008,04,12,01,59,7.10
2008,04,12,02,00,7.10
2008,04,12,02,01,7.10
2008,04,12,02,02,7.10
2008,04,12,02,03,7.10
2008,04,12,02,04,7.10
2008,04,12,02,05,7.10
2008,04,12,02,06,7.10
2008,04,12,02,07,7.10
2008,04,12,02,08,7.10
2008,04,12,02,09,7.10
2008,04,12,02,10,7.10
2008,04,12,02,11,7.10
2008,04,12,02,12,7.10
2008,04,12,02,13,7.10
2008,04,12,02,14,7.10
2008,04,12,02,15,7.10
2008,04,12,02,16,7.10
2008,04,12,02,17,7.10
2008,04,12,02,18,7.00
2008,04,12,02,19,7.00
2008,04,12,02,20,7.00
2008,04,12,02,21,7.00
2008,04,12,02,22,7.00
2008,04,12,02,23,6.90
2008,04,12,02,24,6.90
2008,04,12,02,25,6.90
2008,04,12,02,26,6.90
2008,04,12,02,27,6.90
2008,04,12,02,28,6.80
2008,04,12,02,29,6.80
2008,04,12,02,30,6.80
2008,04,12,02,31,6.80
2008,04,12,02,32,6.80
2008,04,12,02,33,6.80
2008,04,12,02,34,6.80
2008,04,12,02,35,6.80
2008,04,12,02,36,6.70
2008,04,12,02,37,6.80
2008,04,12,02,38,6.80
2008,04,12,02,39,6.80
2008,04,12,02,40,6.80
2008,04,12,02,41,6.80
2008,04,12,02,42,6.80
2008,04,12,02,43,6.80
2008,04,12,02,44,6.80
2008,04,12,02,45,6.90
2008,04,12,02,46,6.90
2008,04,12,02,47,6.90
2008,04,12,02,48,6.90
2008,04,12,02,49,6.90
2008,04,12,02,50,6.90
2008,04,12,02,51,6.90
2008,04,12,02,52,6.90
2008,04,12,02,53,6.90
2008,04,12,02,54,6.90
2008,04,12,02,55,7.00
2008,04,12,02,56,7.00
2008,04,12,02,57,7.00
2008,04,12,02,58,7.00
2008,04,12,02,59,7.00
2008,04,12,03,00,7.00
2008,04,12,03,01,7.00
2008,04,12,03,02,7.00
2008,04,12,03,03,7.00
2008,04,12,03,04,7.00
2008,04,12,03,05,7.00
2008,04,12,03,06,7.00
2008,04,12,03,07,6.90
2008,04,12,03,08,6.90
2008,04,12,03,09,6.90
2008,04,12,03,10,6.90
2008,04,12,03,11,6.90
2008,04,12,03,12,6.80
2008,04,12,03,13,6.90
2008,04,12,03,14,6.80
2008,04,12,03,15,6.80
2008,04,12,03,16,6.80
2008,04,12,03,17,6.80
2008,04,12,03,18,6.80
2008,04,12,03,19,6.80
2008,04,12,03,20,6.80
2008,04,12,03,21,6.80
2008,04,12,03,22,6.80
2008,04,12,03,23,6.80
2008,04,12,03,24,6.80
2008,04,12,03,25,6.80
2008,04,12,03,26,6.80
2008,04,12,03,27,6.80
2008,04,12,03,28,6.80
2008,04,12,03,29,6.80
2008,04,12,03,30,6.80
2008,04,12,03,31,6.80
2008,04,12,03,32,6.80
2008,04,12,03,33,6.80
2008,04,12,03,34,6.80
2008,04,12,03,35,6.80
2008,04,12,03,36,6.80
2008,04,12,03,37,6.80
2008,04,12,03,38,6.80
2008,04,12,03,39,6.80
2008,04,12,03,40,6.80
2008,04,12,03,41,6.80
2008,04,12,03,42,6.80
2008,04,12,03,43,6.80
2008,04,12,03,44,6.80
2008,04,12,03,45,6.80
2008,04,12,03,46,6.80
2008,04,12,03,47,6.80
2008,04,12,03,48,6.80
2008,04,12,03,49,6.80
2008,04,12,03,50,6.80
2008,04,12,03,51,6.80
2008,04,12,03,52,6.80
2008,04,12,03,53,6.80
2008,04,12,03,54,6.70
2008,04,12,03,55,6.70
2008,04,12,03,56,6.70
2008,04,12,03,57,6.70
2008,04,12,03,58,6.70
2008,04,12,03,59,6.70
2008,04,12,04,00,6.70
2008,04,12,04,01,6.70
2008,04,12,04,02,6.70
2008,04,12,04,03,6.70
2008,04,12,04,04,6.70
2008,04,12,04,05,6.70
2008,04,12,04,06,6.70
2008,04,12,04,07,6.70
2008,04,12,04,08,6.70
2008,04,12,04,09,6.70
2008,04,12,04,10,6.60
2008,04,12,04,11,6.60
2008,04,12,04,12,6.60
2008,04,12,04,13,6.60
2008,04,12,04,14,6.60
2008,04,12,04,15,6.60
2008,04,12,04,16,6.60
2008,04,12,04,17,6.60
2008,04,12,04,18,6.50
2008,04,12,04,19,6.50
2008,04,12,04,20,6.50
2008,04,12,04,21,6.50
2008,04,12,04,22,6.40
2008,04,12,04,23,6.40
2008,04,12,04,24,6.40
2008,04,12,04,25,6.40
2008,04,12,04,26,6.40
2008,04,12,04,27,6.30
2008,04,12,04,28,6.30
2008,04,12,04,29,6.30
2008,04,12,04,30,6.30
2008,04,12,04,31,6.30
2008,04,12,04,32,6.30
2008,04,12,04,33,6.30
2008,04,12,04,34,6.30
2008,04,12,04,35,6.30
2008,04,12,04,36,6.30
2008,04,12,04,37,6.30
2008,04,12,04,38,6.30
2008,04,12,04,39,6.30
2008,04,12,04,40,6.30
2008,04,12,04,41,6.30
2008,04,12,04,42,6.30
2008,04,12,04,43,6.30
2008,04,12,04,44,6.30
2008,04,12,04,45,6.30
2008,04,12,04,46,6.30
2008,04,12,04,47,6.30
2008,04,12,04,48,6.30
2008,04,12,04,49,6.30
2008,04,12,04,50,6.30
2008,04,12,04,51,6.30
2008,04,12,04,52,6.20
2008,04,12,04,53,6.20
2008,04,12,04,54,6.20
2008,04,12,04,55,6.20
2008,04,12,04,56,6.20
2008,04,12,04,57,6.20
2008,04,12,04,58,6.20
2008,04,12,04,59,6.20
2008,04,12,05,00,6.20
2008,04,12,05,01,6.20
2008,04,12,05,02,6.20
2008,04,12,05,03,6.20
2008,04,12,05,04,6.20
2008,04,12,05,05,6.20
2008,04,12,05,06,6.20
2008,04,12,05,07,6.20
2008,04,12,05,08,6.20
2008,04,12,05,09,6.20
2008,04,12,05,10,6.20
2008,04,12,05,11,6.30
2008,04,12,05,12,6.30
2008,04,12,05,13,6.30
2008,04,12,05,14,6.20
2008,04,12,05,15,6.30
2008,04,12,05,16,6.30
2008,04,12,05,17,6.30
2008,04,12,05,18,6.30
2008,04,12,05,19,6.30
2008,04,12,05,20,6.30
2008,04,12,05,21,6.40
2008,04,12,05,22,6.40
2008,04,12,05,23,6.40
2008,04,12,05,24,6.40
2008,04,12,05,25,6.40
2008,04,12,05,26,6.40
2008,04,12,05,27,6.40
2008,04,12,05,28,6.40
2008,04,12,05,29,6.40
2008,04,12,05,30,6.40
2008,04,12,05,31,6.40
2008,04,12,05,32,6.40
2008,04,12,05,33,6.40
2008,04,12,05,34,6.40
2008,04,12,05,35,6.30
2008,04,12,05,36,6.30
2008,04,12,05,37,6.30
2008,04,12,05,38,6.30
2008,04,12,05,39,6.40
2008,04,12,05,40,6.40
2008,04,12,05,41,6.40
2008,04,12,05,42,6.30
2008,04,12,05,43,6.30
2008,04,12,05,44,6.30
2008,04,12,05,45,6.30
2008,04,12,05,46,6.30
2008,04,12,05,47,6.30
2008,04,12,05,48,6.30
2008,04,12,05,49,6.30
2008,04,12,05,50,6.30
2008,04,12,05,51,6.30
2008,04,12,05,52,6.30
2008,04,12,05,53,6.30
2008,04,12,05,54,6.30
2008,04,12,05,55,6.30
2008,04,12,05,56,6.30
2008,04,12,05,57,6.40
2008,04,12,05,58,6.40
2008,04,12,05,59,6.40
2008,04,12,06,00,6.40
2008,04,12,06,01,6.40
2008,04,12,06,02,6.40
2008,04,12,06,03,6.40
2008,04,12,06,04,6.40
2008,04,12,06,05,6.40
2008,04,12,06,06,6.40
2008,04,12,06,07,6.40
2008,04,12,06,08,6.40
2008,04,12,06,09,6.40
2008,04,12,06,10,6.40
2008,04,12,06,11,6.40
2008,04,12,06,12,6.40
2008,04,12,06,13,6.40
2008,04,12,06,14,6.40
2008,04,12,06,15,6.40
2008,04,12,06,16,6.40
2008,04,12,06,17,6.40
2008,04,12,06,18,6.40
2008,04,12,06,19,6.40
2008,04,12,06,20,6.40
2008,04,12,06,21,6.40
2008,04,12,06,22,6.40
2008,04,12,06,23,6.40
2008,04,12,06,24,6.40
2008,04,12,06,25,6.40
2008,04,12,06,26,6.40
2008,04,12,06,27,6.40
2008,04,12,06,28,6.40
2008,04,12,06,29,6.40
2008,04,12,06,30,6.40
2008,04,12,06,31,6.50
2008,04,12,06,32,6.40
2008,04,12,06,33,6.50
2008,04,12,06,34,6.40
2008,04,12,06,35,6.50
2008,04,12,06,36,6.50
2008,04,12,06,37,6.50
2008,04,12,06,38,6.50
2008,04,12,06,39,6.50
2008,04,12,06,40,6.50
2008,04,12,06,41,6.50
2008,04,12,06,42,6.50
2008,04,12,06,43,6.50
2008,04,12,06,44,6.60
2008,04,12,06,45,6.60
2008,04,12,06,46,6.60
2008,04,12,06,47,6.50
2008,04,12,06,48,6.50
2008,04,12,06,49,6.50
2008,04,12,06,50,6.60
2008,04,12,06,51,6.60
2008,04,12,06,52,6.60
2008,04,12,06,53,6.60
2008,04,12,06,54,6.60
2008,04,12,06,55,6.60
2008,04,12,06,56,6.60
2008,04,12,06,57,6.60
2008,04,12,06,58,6.60
2008,04,12,06,59,6.60
2008,04,12,07,00,6.60
2008,04,12,07,01,6.60
2008,04,12,07,02,6.60
2008,04,12,07,03,6.70
2008,04,12,07,04,6.70
2008,04,12,07,05,6.70
2008,04,12,07,06,6.70
2008,04,12,07,07,6.70
2008,04,12,07,08,6.80
2008,04,12,07,09,6.80
2008,04,12,07,10,6.80
2008,04,12,07,11,6.80
2008,04,12,07,12,6.90
2008,04,12,07,13,6.90
2008,04,12,07,14,7.00
2008,04,12,07,15,7.00
2008,04,12,07,16,7.00
2008,04,12,07,17,7.10
2008,04,12,07,18,7.10
2008,04,12,07,19,7.10
2008,04,12,07,20,7.10
2008,04,12,07,21,7.10
2008,04,12,07,22,7.10
2008,04,12,07,23,7.10
2008,04,12,07,24,7.10
2008,04,12,07,25,7.20
2008,04,12,07,26,7.20
2008,04,12,07,27,7.20
2008,04,12,07,28,7.20
2008,04,12,07,29,7.20
2008,04,12,07,30,7.20
2008,04,12,07,31,7.30
2008,04,12,07,32,7.30
2008,04,12,07,33,7.30
2008,04,12,07,34,7.30
2008,04,12,07,35,7.30
2008,04,12,07,36,7.30
2008,04,12,07,37,7.40
2008,04,12,07,38,7.40
2008,04,12,07,39,7.50
2008,04,12,07,40,7.50
2008,04,12,07,41,7.50
2008,04,12,07,42,7.60
2008,04,12,07,43,7.60
2008,04,12,07,44,7.60
2008,04,12,07,45,7.70
2008,04,12,07,46,7.70
2008,04,12,07,47,7.70
2008,04,12,07,48,7.80
2008,04,12,07,49,7.80
2008,04,12,07,50,7.90
2008,04,12,07,51,7.90
2008,04,12,07,52,8.00
2008,04,12,07,53,8.10
2008,04,12,07,54,8.10
2008,04,12,07,55,8.20
2008,04,12,07,56,8.20
2008,04,12,07,57,8.30
2008,04,12,07,58,8.40
2008,04,12,07,59,8.50
2008,04,12,08,00,8.60
2008,04,12,08,01,8.70
2008,04,12,08,02,8.80
2008,04,12,08,03,8.80
2008,04,12,08,04,8.90
2008,04,12,08,05,9.00
2008,04,12,08,06,9.00
2008,04,12,08,07,9.10
2008,04,12,08,08,9.10
2008,04,12,08,09,9.10
2008,04,12,08,10,9.20
2008,04,12,08,11,9.20
2008,04,12,08,12,9.20
2008,04,12,08,13,9.20
2008,04,12,08,14,9.30
2008,04,12,08,15,9.30
2008,04,12,08,16,9.30
2008,04,12,08,17,9.40
2008,04,12,08,18,9.40
2008,04,12,08,19,9.50
2008,04,12,08,20,9.60
2008,04,12,08,21,9.70
2008,04,12,08,22,9.70
2008,04,12,08,23,9.70
2008,04,12,08,24,9.80
2008,04,12,08,25,9.80
2008,04,12,08,26,9.80
2008,04,12,08,27,9.80
2008,04,12,08,28,9.90
2008,04,12,08,29,9.90
2008,04,12,08,30,10.00
2008,04,12,08,31,10.10
2008,04,12,08,32,10.20
2008,04,12,08,33,10.20
2008,04,12,08,34,10.30
2008,04,12,08,35,10.40
2008,04,12,08,36,10.40
2008,04,12,08,37,10.50
2008,04,12,08,38,10.50
2008,04,12,08,39,10.50
2008,04,12,08,40,10.50
2008,04,12,08,41,10.50
2008,04,12,08,42,10.50
2008,04,12,08,43,10.60
2008,04,12,08,44,10.60
2008,04,12,08,45,10.60
2008,04,12,08,46,10.50
2008,04,12,08,47,10.50
2008,04,12,08,48,10.40
2008,04,12,08,49,10.40
2008,04,12,08,50,10.40
2008,04,12,08,51,10.30
2008,04,12,08,52,10.30
2008,04,12,08,53,10.20
2008,04,12,08,54,10.20
2008,04,12,08,55,10.10
2008,04,12,08,56,10.10
2008,04,12,08,57,10.00
2008,04,12,08,58,10.00
2008,04,12,08,59,10.00
2008,04,12,09,00,10.10
2008,04,12,09,01,10.10
2008,04,12,09,02,10.10
2008,04,12,09,03,10.20
2008,04,12,09,04,10.20
2008,04,12,09,05,10.20
2008,04,12,09,06,10.20
2008,04,12,09,07,10.20
2008,04,12,09,08,10.30
2008,04,12,09,09,10.30
2008,04,12,09,10,10.40
2008,04,12,09,11,10.40
2008,04,12,09,12,10.40
2008,04,12,09,13,10.40
2008,04,12,09,14,10.40
2008,04,12,09,15,10.40
2008,04,12,09,16,10.50
2008,04,12,09,17,10.50
2008,04,12,09,18,10.60
2008,04,12,09,19,10.60
2008,04,12,09,20,10.70
2008,04,12,09,21,10.80
2008,04,12,09,22,10.80
2008,04,12,09,23,10.80
2008,04,12,09,24,10.90
2008,04,12,09,25,10.90
2008,04,12,09,26,11.00
2008,04,12,09,27,11.00
2008,04,12,09,28,11.10
2008,04,12,09,29,11.10
2008,04,12,09,30,11.10
2008,04,12,09,31,11.00
2008,04,12,09,32,11.00
2008,04,12,09,33,10.90
2008,04,12,09,34,10.80
2008,04,12,09,35,10.70
2008,04,12,09,36,10.70
2008,04,12,09,37,10.70
2008,04,12,09,38,10.70
2008,04,12,09,39,10.70
2008,04,12,09,40,10.80
2008,04,12,09,41,10.80
2008,04,12,09,42,10.70
2008,04,12,09,43,10.70
2008,04,12,09,44,10.70
2008,04,12,09,45,10.80
2008,04,12,09,46,10.80
2008,04,12,09,47,10.80
2008,04,12,09,48,10.80
2008,04,12,09,49,10.80
2008,04,12,09,50,10.80
2008,04,12,09,51,10.80
2008,04,12,09,52,10.80
2008,04,12,09,53,10.70
2008,04,12,09,54,10.60
2008,04,12,09,55,10.60
2008,04,12,09,56,10.50
2008,04,12,09,57,10.40
2008,04,12,09,58,10.30
2008,04,12,09,59,10.30
2008,04,12,10,00,10.30
2008,04,12,10,01,10.40
2008,04,12,10,02,10.50
2008,04,12,10,03,10.50
2008,04,12,10,04,10.60
2008,04,12,10,05,10.70
2008,04,12,10,06,10.80
2008,04,12,10,07,10.80
2008,04,12,10,08,10.90
2008,04,12,10,09,10.90
2008,04,12,10,10,11.00
2008,04,12,10,11,11.00
2008,04,12,10,12,11.10
2008,04,12,10,13,11.10
2008,04,12,10,14,11.00
2008,04,12,10,15,11.00
2008,04,12,10,16,10.90
2008,04,12,10,17,10.80
2008,04,12,10,18,10.80
2008,04,12,10,19,10.80
2008,04,12,10,20,10.80
2008,04,12,10,21,10.80
2008,04,12,10,22,10.80
2008,04,12,10,23,10.80
2008,04,12,10,24,10.80
2008,04,12,10,25,10.90
2008,04,12,10,26,10.90
2008,04,12,10,27,10.90
2008,04,12,10,28,10.90
2008,04,12,10,29,10.90
2008,04,12,10,30,10.90
2008,04,12,10,31,10.90
2008,04,12,10,32,10.90
2008,04,12,10,33,11.00
2008,04,12,10,34,11.10
2008,04,12,10,35,11.20
2008,04,12,10,36,11.20
2008,04,12,10,37,11.20
2008,04,12,10,38,11.20
2008,04,12,10,39,11.30
2008,04,12,10,40,11.30
2008,04,12,10,41,11.40
2008,04,12,10,42,11.40
2008,04,12,10,43,11.40
2008,04,12,10,44,11.40
2008,04,12,10,45,11.50
2008,04,12,10,46,11.60
2008,04,12,10,47,11.60
2008,04,12,10,48,11.60
2008,04,12,10,49,11.50
2008,04,12,10,50,11.50
2008,04,12,10,51,11.50
2008,04,12,10,52,11.50
2008,04,12,10,53,11.60
2008,04,12,10,54,11.60
2008,04,12,10,55,11.60
2008,04,12,10,56,11.70
2008,04,12,10,57,11.80
2008,04,12,10,58,11.90
2008,04,12,10,59,12.00
2008,04,12,11,00,12.10
2008,04,12,11,01,12.10
2008,04,12,11,02,12.20
2008,04,12,11,03,12.30
2008,04,12,11,04,12.30
2008,04,12,11,05,12.30
2008,04,12,11,06,12.30
2008,04,12,11,07,12.30
2008,04,12,11,08,12.40
2008,04,12,11,09,12.40
2008,04,12,11,10,12.40
2008,04,12,11,11,12.40
2008,04,12,11,12,12.40
2008,04,12,11,13,12.50
2008,04,12,11,14,12.50
2008,04,12,11,15,12.60
2008,04,12,11,16,12.70
2008,04,12,11,17,12.80
2008,04,12,11,18,12.90
2008,04,12,11,19,13.00
2008,04,12,11,20,13.10
2008,04,12,11,21,13.10
2008,04,12,11,22,13.10
2008,04,12,11,23,13.10
2008,04,12,11,24,13.20
2008,04,12,11,25,13.20
2008,04,12,11,26,13.20
2008,04,12,11,27,13.20
2008,04,12,11,28,13.20
2008,04,12,11,29,13.20
2008,04,12,11,30,13.10
2008,04,12,11,31,13.10
2008,04,12,11,32,13.00
2008,04,12,11,33,13.00
2008,04,12,11,34,13.00
2008,04,12,11,35,13.00
2008,04,12,11,36,12.90
2008,04,12,11,37,12.90
2008,04,12,11,38,12.90
2008,04,12,11,39,12.90
2008,04,12,11,40,12.90
2008,04,12,11,41,12.90
2008,04,12,11,42,12.90
2008,04,12,11,43,13.00
2008,04,12,11,44,13.00
2008,04,12,11,45,13.00
2008,04,12,11,46,13.10
2008,04,12,11,47,13.10
2008,04,12,11,48,13.20
2008,04,12,11,49,13.30
2008,04,12,11,50,13.40
2008,04,12,11,51,13.40
2008,04,12,11,52,13.50
2008,04,12,11,53,13.40
2008,04,12,11,54,13.40
2008,04,12,11,55,13.30
2008,04,12,11,56,13.20
2008,04,12,11,57,13.00
2008,04,12,11,58,12.90
2008,04,12,11,59,12.80
2008,04,12,12,00,12.70
2008,04,12,12,01,12.70
2008,04,12,12,02,12.60
2008,04,12,12,03,12.50
2008,04,12,12,04,12.40
2008,04,12,12,05,12.40
2008,04,12,12,06,12.40
2008,04,12,12,07,12.40
2008,04,12,12,08,12.30
2008,04,12,12,09,12.30
2008,04,12,12,10,12.30
2008,04,12,12,11,12.30
2008,04,12,12,12,12.30
2008,04,12,12,13,12.30
2008,04,12,12,14,12.30
2008,04,12,12,15,12.30
2008,04,12,12,16,12.30
2008,04,12,12,17,12.30
2008,04,12,12,18,12.30
2008,04,12,12,19,12.30
2008,04,12,12,20,12.30
2008,04,12,12,21,12.30
2008,04,12,12,22,12.30
2008,04,12,12,23,12.30
2008,04,12,12,24,12.30
2008,04,12,12,25,12.30
2008,04,12,12,26,12.30
2008,04,12,12,27,12.30
2008,04,12,12,28,12.30
2008,04,12,12,29,12.30
2008,04,12,12,30,12.30
2008,04,12,12,31,12.30
2008,04,12,12,32,12.30
2008,04,12,12,33,12.30
2008,04,12,12,34,12.30
2008,04,12,12,35,12.30
2008,04,12,12,36,12.30
2008,04,12,12,37,12.20
2008,04,12,12,38,12.20
2008,04,12,12,39,12.20
2008,04,12,12,40,12.20
2008,04,12,12,41,12.20
2008,04,12,12,42,12.20
2008,04,12,12,43,12.30
2008,04,12,12,44,12.40
2008,04,12,12,45,12.40
2008,04,12,12,46,12.50
2008,04,12,12,47,12.60
2008,04,12,12,48,12.70
2008,04,12,12,49,12.70
2008,04,12,12,50,12.80
2008,04,12,12,51,12.80
2008,04,12,12,52,12.80
2008,04,12,12,53,12.80
2008,04,12,12,54,12.70
2008,04,12,12,55,12.60
2008,04,12,12,56,12.60
2008,04,12,12,57,12.50
2008,04,12,12,58,12.40
2008,04,12,12,59,12.40
2008,04,12,13,00,12.40
2008,04,12,13,01,12.30
2008,04,12,13,02,12.30
2008,04,12,13,03,12.40
2008,04,12,13,04,12.50
2008,04,12,13,05,12.60
2008,04,12,13,06,12.70
2008,04,12,13,07,12.80
2008,04,12,13,08,13.00
2008,04,12,13,09,13.10
2008,04,12,13,10,13.30
2008,04,12,13,11,13.30
2008,04,12,13,12,13.30
2008,04,12,13,13,13.40
2008,04,12,13,14,13.40
2008,04,12,13,15,13.40
2008,04,12,13,16,13.30
2008,04,12,13,17,13.30
2008,04,12,13,18,13.30
2008,04,12,13,19,13.30
2008,04,12,13,20,13.30
2008,04,12,13,21,13.40
2008,04,12,13,22,13.40
2008,04,12,13,23,13.50
2008,04,12,13,24,13.60
2008,04,12,13,25,13.70
2008,04,12,13,26,13.80
2008,04,12,13,27,13.80
2008,04,12,13,28,13.70
2008,04,12,13,29,13.70
2008,04,12,13,30,13.70
2008,04,12,13,31,13.60
2008,04,12,13,32,13.60
2008,04,12,13,33,13.60
2008,04,12,13,34,13.60
2008,04,12,13,35,13.60
2008,04,12,13,36,13.50
2008,04,12,13,37,13.50
2008,04,12,13,38,13.50
2008,04,12,13,39,13.50
2008,04,12,13,40,13.60
2008,04,12,13,41,13.60
2008,04,12,13,42,13.70
2008,04,12,13,43,13.70
2008,04,12,13,44,13.70
2008,04,12,13,45,13.70
2008,04,12,13,46,13.70
2008,04,12,13,47,13.80
2008,04,12,13,48,13.80
2008,04,12,13,49,13.80
2008,04,12,13,50,13.80
2008,04,12,13,51,13.90
2008,04,12,13,52,13.90
2008,04,12,13,53,13.90
2008,04,12,13,54,13.90
2008,04,12,13,55,14.00
2008,04,12,13,56,14.00
2008,04,12,13,57,14.10
2008,04,12,13,58,14.10
2008,04,12,13,59,14.20
2008,04,12,14,00,14.30
2008,04,12,14,01,14.40
2008,04,12,14,02,14.50
2008,04,12,14,03,14.60
2008,04,12,14,04,14.60
2008,04,12,14,05,14.60
2008,04,12,14,06,14.70
2008,04,12,14,07,14.70
2008,04,12,14,08,14.90
2008,04,12,14,09,15.00
2008,04,12,14,10,15.00
2008,04,12,14,11,15.10
2008,04,12,14,12,15.20
2008,04,12,14,13,15.30
2008,04,12,14,14,15.40
2008,04,12,14,15,15.40
2008,04,12,14,16,15.50
2008,04,12,14,17,15.50
2008,04,12,14,18,15.50
2008,04,12,14,19,15.50
2008,04,12,14,20,15.50
2008,04,12,14,21,15.40
2008,04,12,14,22,15.30
2008,04,12,14,23,15.20
2008,04,12,14,24,15.20
2008,04,12,14,25,15.20
2008,04,12,14,26,15.20
2008,04,12,14,27,15.20
2008,04,12,14,28,15.30
2008,04,12,14,29,15.30
2008,04,12,14,30,15.30
2008,04,12,14,31,15.30
2008,04,12,14,32,15.40
2008,04,12,14,33,15.40
2008,04,12,14,34,15.40
2008,04,12,14,35,15.40
2008,04,12,14,36,15.40
2008,04,12,14,37,15.40
2008,04,12,14,38,15.40
2008,04,12,14,39,15.40
2008,04,12,14,40,15.40
2008,04,12,14,41,15.50
2008,04,12,14,42,15.50
2008,04,12,14,43,15.50
2008,04,12,14,44,15.40
2008,04,12,14,45,15.40
2008,04,12,14,46,15.30
2008,04,12,14,47,15.20
2008,04,12,14,48,15.10
2008,04,12,14,49,15.00
2008,04,12,14,50,15.00
2008,04,12,14,51,15.00
2008,04,12,14,52,15.00
2008,04,12,14,53,14.90
2008,04,12,14,54,14.90
2008,04,12,14,55,14.90
2008,04,12,14,56,15.00
2008,04,12,14,57,15.00
2008,04,12,14,58,15.00
2008,04,12,14,59,15.00
2008,04,12,15,00,15.00
2008,04,12,15,01,15.00
2008,04,12,15,02,15.00
2008,04,12,15,03,15.00
2008,04,12,15,04,15.00
2008,04,12,15,05,15.00
2008,04,12,15,06,15.10
2008,04,12,15,07,15.10
2008,04,12,15,08,15.10
2008,04,12,15,09,15.10
2008,04,12,15,10,15.10
2008,04,12,15,11,15.10
2008,04,12,15,12,15.10
2008,04,12,15,13,15.10
2008,04,12,15,14,15.10
2008,04,12,15,15,15.00
2008,04,12,15,16,15.00
2008,04,12,15,17,15.10
2008,04,12,15,18,15.20
2008,04,12,15,19,15.20
2008,04,12,15,20,15.30
2008,04,12,15,21,15.40
2008,04,12,15,22,15.50
2008,04,12,15,23,15.60
2008,04,12,15,24,15.70
2008,04,12,15,25,15.80
2008,04,12,15,26,15.80
2008,04,12,15,27,15.80
2008,04,12,15,28,15.90
2008,04,12,15,29,15.90
2008,04,12,15,30,16.00
2008,04,12,15,31,16.00
2008,04,12,15,32,16.10
2008,04,12,15,33,16.10
2008,04,12,15,34,16.20
2008,04,12,15,35,16.20
2008,04,12,15,36,16.30
2008,04,12,15,37,16.30
2008,04,12,15,38,16.40
2008,04,12,15,39,16.50
2008,04,12,15,40,16.50
2008,04,12,15,41,16.60
2008,04,12,15,42,16.70
2008,04,12,15,43,16.70
2008,04,12,15,44,16.70
2008,04,12,15,45,16.70
2008,04,12,15,46,16.80
2008,04,12,15,47,16.80
2008,04,12,15,48,16.90
2008,04,12,15,49,16.90
2008,04,12,15,50,16.80
2008,04,12,15,51,16.80
2008,04,12,15,52,16.80
2008,04,12,15,53,16.80
2008,04,12,15,54,16.80
2008,04,12,15,55,16.80
2008,04,12,15,56,16.80
2008,04,12,15,57,16.90
2008,04,12,15,58,16.90
2008,04,12,15,59,17.00
2008,04,12,16,00,17.10
2008,04,12,16,01,17.20
2008,04,12,16,02,17.30
2008,04,12,16,03,17.40
2008,04,12,16,04,17.50
2008,04,12,16,05,17.60
2008,04,12,16,06,17.80
2008,04,12,16,07,17.90
2008,04,12,16,08,18.10
2008,04,12,16,09,18.10
2008,04,12,16,10,18.10
2008,04,12,16,11,18.10
2008,04,12,16,12,18.00
2008,04,12,16,13,18.00
2008,04,12,16,14,17.90
2008,04,12,16,15,17.80
2008,04,12,16,16,17.70
2008,04,12,16,17,17.70
2008,04,12,16,18,17.70
2008,04,12,16,19,17.70
2008,04,12,16,20,17.70
2008,04,12,16,21,17.70
2008,04,12,16,22,17.70
2008,04,12,16,23,17.60
2008,04,12,16,24,17.50
2008,04,12,16,25,17.50
2008,04,12,16,26,17.40
2008,04,12,16,27,17.30
2008,04,12,16,28,17.30
2008,04,12,16,29,17.30
2008,04,12,16,30,17.40
2008,04,12,16,31,17.40
2008,04,12,16,32,17.50
2008,04,12,16,33,17.60
2008,04,12,16,34,17.70
2008,04,12,16,35,17.70
2008,04,12,16,36,17.70
2008,04,12,16,37,17.80
2008,04,12,16,38,17.80
2008,04,12,16,39,17.70
2008,04,12,16,40,17.70
2008,04,12,16,41,17.70
2008,04,12,16,42,17.70
2008,04,12,16,43,17.70
2008,04,12,16,44,17.70
2008,04,12,16,45,17.80
2008,04,12,16,46,17.80
2008,04,12,16,47,17.80
2008,04,12,16,48,17.80
2008,04,12,16,49,17.80
2008,04,12,16,50,17.80
2008,04,12,16,51,17.80
2008,04,12,16,52,17.70
2008,04,12,16,53,17.70
2008,04,12,16,54,17.60
2008,04,12,16,55,17.60
2008,04,12,16,56,17.60
2008,04,12,16,57,17.60
2008,04,12,16,58,17.60
2008,04,12,16,59,17.60
2008,04,12,17,00,17.60
2008,04,12,17,01,17.70
2008,04,12,17,02,17.70
2008,04,12,17,03,17.80
2008,04,12,17,04,17.90
2008,04,12,17,05,18.00
2008,04,12,17,06,17.90
2008,04,12,17,07,17.90
2008,04,12,17,08,17.90
2008,04,12,17,09,17.80
2008,04,12,17,10,17.80
2008,04,12,17,11,17.80
2008,04,12,17,12,17.90
2008,04,12,17,13,17.90
2008,04,12,17,14,18.00
2008,04,12,17,15,18.00
2008,04,12,17,16,18.00
2008,04,12,17,17,17.90
2008,04,12,17,18,17.90
2008,04,12,17,19,17.90
2008,04,12,17,20,17.90
2008,04,12,17,21,17.80
2008,04,12,17,22,17.80
2008,04,12,17,23,17.90
2008,04,12,17,24,18.00
2008,04,12,17,25,18.10
2008,04,12,17,26,18.20
2008,04,12,17,27,18.30
2008,04,12,17,28,18.40
2008,04,12,17,29,18.50
2008,04,12,17,30,18.70
2008,04,12,17,31,18.80
2008,04,12,17,32,18.90
2008,04,12,17,33,18.90
2008,04,12,17,34,18.90
2008,04,12,17,35,19.00
2008,04,12,17,36,19.00
2008,04,12,17,37,19.00
2008,04,12,17,38,18.90
2008,04,12,17,39,18.90
2008,04,12,17,40,18.80
2008,04,12,17,41,18.70